AirNav   Air Wisconsin pilot careers
 
 682 users online  

KBST Belfast Municipal Airport
Belfast, Maine, USA

GOING TO BELFAST?


FAA INFORMATION EFFECTIVE 11 OCTOBER 2018

Location

FAA Identifier: BST
Lat/Long: 44-24-33.8000N / 069-00-42.6000W
44-24.563333N / 069-00.710000W
44.4093889 / -69.0118333
(estimated)
Elevation: 197.6 ft. / 60.2 m (surveyed)
Variation: 18W (2000)
From city: 1 mile SW of BELFAST, ME
Time zone: UTC -4 (UTC -5 during Standard Time)
Zip code: 04915

Airport Operations

Airport use: Open to the public
Activation date: 03/1943
Control tower: no
ARTCC: BOSTON CENTER
FSS: BANGOR FLIGHT SERVICE STATION
NOTAMs facility: BGR (NOTAM-D service available)
Attendance: IREG
Wind indicator: lighted
Segmented circle: yes
Lights: ACTIVATE REIL 15/33 MIRL RY 15/33 - CTAF.
Beacon: white-green (lighted land airport)
Operates sunset to sunrise.

Airport Communications

CTAF/UNICOM: 122.975
WX AWOS-AV: 122.975 (207-930-7071)
BANGOR APPROACH: 118.925
BANGOR DEPARTURE: 118.925

Nearby radio navigation aids

VOR radial/distance  VOR name  Freq  Var
BGRr212/26.6BANGOR VORTAC114.8019W
AUGr099/34.1AUGUSTA VOR/DME111.4018W

 
NDB name  Hdg/Dist  Freq  Var  ID
BELFASTat field27818WBST -... ... -
SPRUCEHEAD029/21.935618WSUH ... ..- ....
BURNHAM157/22.834818WBUP -... ..- .--.

Airport Services

Parking: hangars and tiedowns
Airframe service: MINOR
Powerplant service: MINOR
Bottled oxygen: NONE
Bulk oxygen: NONE

Runway Information

Runway 15/33

Dimensions: 4000 x 100 ft. / 1219 x 30 m
Surface: asphalt, in excellent condition
Weight bearing capacity: 
Single wheel: 30.0
Runway edge lights: medium intensity
RUNWAY 15  RUNWAY 33
Latitude: 44-24.789857N44-24.337253N
Longitude: 069-01.043273W069-00.376365W
Elevation: 197.5 ft.158.5 ft.
Gradient: 1.0% DOWN1.0% UP
Traffic pattern: leftleft
Runway heading: 151 magnetic, 133 true331 magnetic, 313 true
Markings: nonprecision, in good conditionnonprecision, in good condition
Runway end identifier lights: yesyes
Touchdown point: yes, no lightsyes, no lights
Obstructions: 35 ft. tree, lighted, 210 ft. from runway, 255 ft. right of centerline
RWY 15 +55 FT. TREES 0 FT. TO 200 FT. FROM THRESHOLD, 240 FT. RIGHT OF CENTERLINE; +17 FT. TREES 0 FT. TO 100 FT. FROM THRESHOLD, 245 FT. LEFT OF CENTERLINE.
33 ft. trees, 765 ft. from runway, 260 ft. left of centerline, 17:1 slope to clear
RWY 33 + 4 FT. BRUSH 10 FT. TO 25 FT. FROM THRESHOLD, 81 FT. RIGHT OF CENTERLINE; + 10 FT. TREES 40 FT. TO 175 FT. FROM THRESHOLD, 190 FT. TO 230 FT. RIGHT OF CENTERLINE.

Airport Ownership and Management from official FAA records

Ownership: Publicly-owned
Owner: CITY OF BELFAST
CITY HALL 131 CHURCH ST (TOP FLOOR)
BELFAST, ME 04915
Phone 207-338-3370X600
Manager: THOMAS KITTREDGE
CITY HALL 131 CHURCH ST
BELFAST, ME 04915
Phone 207-338-3370X600
AIRPORT DIRECTOR.

Airport Operational Statistics

Aircraft based on the field: 15
Single engine airplanes: 14
Ultralights: 1
    
Aircraft operations: avg 27/day *
60% local general aviation
20% transient general aviation
20% air taxi
* for 12-month period ending 09 August 2017

Additional Remarks

CALL AHD FOR FBO SVCS 239-784-7472.
SURFACE CONDITION REPORTED MONDAY-FRIDAY 1400-2200 Z DECEMBER-MARCH.
FMI: WWW.CITYOFBELFAST.ORG/AIRPORT
80 FT. TALL OBSTRUCTION LIGHTS ALONG BOTH SIDES OF PRIMARY SURFACE AND TREE LINE.
GND TRANSPORTATION AVBL.
AWOS AVAILABLE VIA CTAF - 2 CLICKS OR VIA CALLING (207) 930-7071 OR GO TO WWW.DIGIWX-BST.COM
FREE UNSECURED WIFI AVAIL
DEER & BIRDS ON OR INVOF ARPT.
SFC COND RPRTD MONDAY-FRIDAY 1400-2200Z DEC-MAR.

Instrument Procedures

NOTE: All procedures below are presented as PDF files. If you need a reader for these files, you should download the free Adobe Reader.

NOT FOR NAVIGATION. Please procure official charts for flight.
FAA instrument procedures published for use from 11 October 2018 at 0901Z to 8 November 2018 at 0900Z.

 
IAPs - Instrument Approach Procedures
RNAV (GPS) RWY 15   download (226KB)
RNAV (GPS) RWY 33   download (261KB)
NDB RWY 15   download (184KB)
NOTE: Special Take-Off Minimums/Departure Procedures apply   download (178KB)

Other nearby airports with instrument procedures:

KRKD - Knox County Regional Airport (21 nm S)
KBGR - Bangor International Airport (25 nm N)
2B7 - Pittsfield Municipal Airport (27 nm NW)
KBHB - Hancock County-Bar Harbor Airport (28 nm E)
KWVL - Waterville Robert LaFleur Airport (29 nm W)
 
Loc | Ops | Rwys | IFR | FBO | Links
Com | Nav | Svcs | Stats | Notes


 
Area around KBST (Belfast Municipal Airport)
 
Road maps at: MapQuest Bing Google
 
Aerial photo
WARNING: Photo may not be current or correct
Aerial photo of KBST (Belfast Municipal Airport)
Photo by Kyle Warren Photography
Photo taken 20-Feb-2017
looking northwest.

Do you have a better or more recent aerial photo of Belfast Municipal Airport that you would like to share? If so, please send us your photo.

 
Sectional chart

 
Airport distance calculator
Flying to Belfast Municipal Airport? Find the distance to fly.

From to KBST

Sunrise and sunset
Times for 24-Oct-2018
 Local
(UTC-4)
 Zulu
(UTC)
Morning civil twilight06:3410:34
Sunrise07:0411:04
Sunset17:3721:37
Evening civil twilight18:0722:07

Current date and time
Zulu (UTC)  24-Oct-2018 04:03:43
Local (UTC-4)  24-Oct-2018 00:03:43
 
METAR
KRKD 
21nm S 
240356Z AUTO 09017G21KT 6SM RA BR OVC015 08/07 A2990 RMK AO2 SLP128 P0013 T00830072
KBGR 
25nm N 
240353Z 03010KT 8SM -RA SCT013 BKN034 OVC044 03/01 A3000 RMK AO2 RAB47 SLP162 P0000 T00280011
KBHB 
28nm E 
240356Z AUTO 04009KT 8SM RA SCT016 BKN023 OVC060 07/06 A2995 RMK AO2 RAE09B44 SLP146 P0001 T00670056
KWVL 
29nm W 
240356Z AUTO 04010KT 10SM -RA OVC004 03/02 A2993 RMK AO2 SLP164 P0003 T00280017 $
KAUG 
34nm W 
240353Z AUTO 02012G19KT 10SM -RA OVC004 03/02 A2993 RMK AO2 SLP138 P0007 T00280022
KIWI 
40nm SW 
240353Z AUTO VRB05KT 5SM RA BR FEW007 BKN027 OVC035 06/06 A2991 RMK AO2 SLP127 P0017 T00610061 TSNO
TAF
KRKD 
21nm S 
231730Z 2318/2418 15009G16KT 5SM -RA OVC030 FM232200 11013G21KT 4SM -RA OVC015 FM240100 07013G21KT 2SM -RA OVC008 FM240300 04012G20KT 1 1/2SM -RA OVC003 FM241500 35014G25KT P6SM VCSH OVC015
KBGR 
25nm N 
240229Z 2402/2424 01009KT P6SM BKN015 OVC025 FM240300 02009KT 5SM -RASN BR OVC012 FM241200 04012KT 1SM -RASN SCT004 OVC009 FM241700 01014G22KT 5SM -RA SCT005 OVC012
NOTAMs
Click for the latest NOTAMs
NOTAMs are issued by the DoD/FAA and will open in a separate window not controlled by AirNav.

 

 
 

Would you like to see your business listed on this page?

 If your business provides an interesting product or service to pilots, flight crews, aircraft, or users of the Belfast Municipal Airport, you should consider listing it here.  To start the listing process, click on the button below
 
Add a business
 

Other Pages about Belfast Municipal Airport

www.cityofbelfast.org/index.aspx?NID=147
 
Update a link
 
Copyright © AirNav, LLC. All rights reserved. Privacy Policy  Contact